{"data":{"norad_id":66226,"intl_designator":"2025-244W","name":"STARLINK-34466","alt_names":[],"object_type":"PAYLOAD","status":"ACTIVE","operator":null,"country":"US","launch_date":"2025-10-28","launch_site_code":"AFWTR","launch_vehicle":null,"mission":null,"orbit_class":"UNKNOWN","rcs_meters":null,"size_class":null,"mass_kg":null,"dimensions":null,"purposes":["comms"],"wikipedia_slug":null,"has_3d_model":false,"image_url":null,"decayed_at":null,"tle_current":{"epoch":"2026-09-20T21:00:59.409504Z","epoch_age_seconds":64263,"freshness":"FRESH","line1":"1 66226U 25244W   26263.87568761  .00011023  00000+0  33658-3 0  9990","line2":"2 66226  53.1584  39.7225 0000841  72.8216 287.2878 15.34427754 51591","mean_motion":15.34427754,"eccentricity":8.41e-5,"inclination_deg":53.1584,"raan_deg":39.7225,"arg_perigee_deg":72.8216,"mean_anomaly_deg":287.2878,"bstar":0.00033658,"rev_number":5159,"period_min":93.846060607686,"perigee_km":462.04544298676,"apogee_km":463.19605844043,"semimajor_km":6840.7577507136,"source":"CELESTRAK","updated_at":"2026-09-21T09:00:35.843852Z"}}}